Voltar ao catálogo

COSMOS 2251 DEB

AtivoLEO
NORAD 33828·DEBRIS·🇷🇺 Russia

Lançado Jun 16, 1993 de Plesetsk Cosmodrome

Loading…

Próximas Passagens (próximas 24 horas)

TLE

AtualizadoSource: Space-Track

Época: Sep 14, 2026, 06:53 UTC

1 33828U 93036BV  26257.28719579  .00000735  00000-0  21725-3 0  9990
2 33828  74.0439  85.3484 0028211  92.0021  81.9585 14.45022076922924

Acompanhe COSMOS 2251 DEB em tempo real com AllMySat

Download on the App Store